{"data":{"norad_id":59243,"intl_designator":"2024-049N","name":"STARLINK-31433","alt_names":[],"object_type":"PAYLOAD","status":"ACTIVE","operator":null,"country":"US","launch_date":"2024-03-16","launch_site_code":"AFETR","launch_vehicle":null,"mission":null,"orbit_class":"UNKNOWN","rcs_meters":null,"size_class":null,"mass_kg":null,"dimensions":null,"purposes":["comms"],"wikipedia_slug":null,"has_3d_model":false,"image_url":null,"decayed_at":null,"tle_current":{"epoch":"2026-05-25T04:04:03.806400Z","epoch_age_seconds":56874,"freshness":"FRESH","line1":"1 59243U 24049N   26145.16948850  .00002424  00000+0  97587-4 0  9992","line2":"2 59243  43.0010  71.5369 0001165 267.4541  92.6177 15.27583119124108","mean_motion":15.27583119,"eccentricity":0.0001165,"inclination_deg":43.001,"raan_deg":71.5369,"arg_perigee_deg":267.4541,"mean_anomaly_deg":92.6177,"bstar":9.7587e-5,"rev_number":12410,"period_min":94.26655624099,"perigee_km":482.24042955534,"apogee_km":483.83908373964,"semimajor_km":6861.1767566475,"source":"CELESTRAK","updated_at":"2026-05-25T13:38:18.871644Z"}}}